owner,sensor,date,latitude,longitude,air_temperature,qcFlag 
DISL,ioos:station:DISL:MBLA:1,2014-02-01T00:00:00Z,30.4367,-88.0117,8.74,1111122 
DISL,ioos:station:DISL:MBLA:1,2014-02-01T00:30:00Z,30.4367,-88.0117,8.58,1111122 
DISL,ioos:station:DISL:MBLA:1,2014-02-01T01:00:00Z,30.4367,-88.0117,8.45,1111122 
DISL,ioos:station:DISL:MBLA:1,2014-02-01T01:30:00Z,30.4367,-88.0117,8.15,1111122 
DISL,ioos:station:DISL:MBLA:1,2014-02-01T02:00:00Z,30.4367,-88.0117,7.71,1111122 
DISL,ioos:station:DISL:MBLA:1,2014-02-01T02:30:00Z,30.4367,-88.0117,7.378,1111122 
DISL,ioos:station:DISL:MBLA:1,2014-02-01T03:00:00Z,30.4367,-88.0117,7.684,1111122 
DISL,ioos:station:DISL:MBLA:1,2014-02-01T03:30:00Z,30.4367,-88.0117,9.55,1111122 
DISL,ioos:station:DISL:MBLA:1,2014-02-01T04:00:00Z,30.4367,-88.0117,8.23,1111122 
DISL,ioos:station:DISL:MBLA:1,2014-02-01T04:30:00Z,30.4367,-88.0117,7.276,1111122 
DISL,ioos:station:DISL:MBLA:1,2014-02-01T05:00:00Z,30.4367,-88.0117,6.496,1111122 
DISL,ioos:station:DISL:MBLA:1,2014-02-01T05:30:00Z,30.4367,-88.0117,6.055,1111122 
DISL,ioos:station:DISL:MBLA:1,2014-02-01T06:00:00Z,30.4367,-88.0117,5.79,1111122 
DISL,ioos:station:DISL:MBLA:1,2014-02-01T06:30:00Z,30.4367,-88.0117,6.13,1111122 
DISL,ioos:station:DISL:MBLA:1,2014-02-01T07:00:00Z,30.4367,-88.0117,6.198,1111122 
DISL,ioos:station:DISL:MBLA:1,2014-02-01T07:30:00Z,30.4367,-88.0117,5.621,1111122 
DISL,ioos:station:DISL:MBLA:1,2014-02-01T08:00:00Z,30.4367,-88.0117,5.757,1111122 
DISL,ioos:station:DISL:MBLA:1,2014-02-01T08:30:00Z,30.4367,-88.0117,5.723,1111122 
DISL,ioos:station:DISL:MBLA:1,2014-02-01T09:00:00Z,30.4367,-88.0117,5.35,1111122 
DISL,ioos:station:DISL:MBLA:1,2014-02-01T09:30:00Z,30.4367,-88.0117,5.282,1111122 
DISL,ioos:station:DISL:MBLA:1,2014-02-01T10:00:00Z,30.4367,-88.0117,5.693,1111122 
DISL,ioos:station:DISL:MBLA:1,2014-02-01T10:30:00Z,30.4367,-88.0117,6.572,1111122 
DISL,ioos:station:DISL:MBLA:1,2014-02-01T11:00:00Z,30.4367,-88.0117,7.284,1111122 
DISL,ioos:station:DISL:MBLA:1,2014-02-01T11:30:00Z,30.4367,-88.0117,7.963,1111122 
DISL,ioos:station:DISL:MBLA:1,2014-02-01T12:00:00Z,30.4367,-88.0117,8.19,1111122 
DISL,ioos:station:DISL:MBLA:1,2014-02-01T12:30:00Z,30.4367,-88.0117,8.29,1111122 
DISL,ioos:station:DISL:MBLA:1,2014-02-01T13:00:00Z,30.4367,-88.0117,8.19,1111122 
DISL,ioos:station:DISL:MBLA:1,2014-02-01T13:30:00Z,30.4367,-88.0117,8.43,1111122 
DISL,ioos:station:DISL:MBLA:1,2014-02-01T14:00:00Z,30.4367,-88.0117,8.8,1111122 
DISL,ioos:station:DISL:MBLA:1,2014-02-01T14:30:00Z,30.4367,-88.0117,9.37,1111122 
DISL,ioos:station:DISL:MBLA:1,2014-02-01T15:00:00Z,30.4367,-88.0117,9.95,1111122 
DISL,ioos:station:DISL:MBLA:1,2014-02-01T15:30:00Z,30.4367,-88.0117,10.72,1111122 
DISL,ioos:station:DISL:MBLA:1,2014-02-01T16:00:00Z,30.4367,-88.0117,11.74,1111122 
DISL,ioos:station:DISL:MBLA:1,2014-02-01T16:30:00Z,30.4367,-88.0117,13.01,1111122 
DISL,ioos:station:DISL:MBLA:1,2014-02-01T17:00:00Z,30.4367,-88.0117,12.06,1111122 
DISL,ioos:station:DISL:MBLA:1,2014-02-01T17:30:00Z,30.4367,-88.0117,12.32,1111122 
DISL,ioos:station:DISL:MBLA:1,2014-02-01T18:00:00Z,30.4367,-88.0117,13.01,1111122 
DISL,ioos:station:DISL:MBLA:1,2014-02-01T18:30:00Z,30.4367,-88.0117,12.57,1111122 
DISL,ioos:station:DISL:MBLA:1,2014-02-01T19:00:00Z,30.4367,-88.0117,12.3,1111122 
DISL,ioos:station:DISL:MBLA:1,2014-02-01T19:30:00Z,30.4367,-88.0117,12.98,1111122 
DISL,ioos:station:DISL:MBLA:1,2014-02-01T20:00:00Z,30.4367,-88.0117,12.43,1111122 
DISL,ioos:station:DISL:MBLA:1,2014-02-01T20:30:00Z,30.4367,-88.0117,12.77,1111122 
DISL,ioos:station:DISL:MBLA:1,2014-02-01T21:00:00Z,30.4367,-88.0117,13.08,1111122 
DISL,ioos:station:DISL:MBLA:1,2014-02-01T21:30:00Z,30.4367,-88.0117,12.91,1111122 
DISL,ioos:station:DISL:MBLA:1,2014-02-01T22:00:00Z,30.4367,-88.0117,12.91,1111122 
DISL,ioos:station:DISL:MBLA:1,2014-02-01T22:30:00Z,30.4367,-88.0117,13.32,1111122 
DISL,ioos:station:DISL:MBLA:1,2014-02-01T23:00:00Z,30.4367,-88.0117,13.42,1111122 
DISL,ioos:station:DISL:MBLA:1,2014-02-01T23:30:00Z,30.4367,-88.0117,13.35,1111122 
DISL,ioos:station:DISL:MBLA:1,2014-02-02T00:00:00Z,30.4367,-88.0117,13.96,1111122 
DISL,ioos:station:DISL:MBLA:1,2014-02-02T00:30:00Z,30.4367,-88.0117,14.37,1111122 
DISL,ioos:station:DISL:MBLA:1,2014-02-02T01:00:00Z,30.4367,-88.0117,14.23,1111122 
DISL,ioos:station:DISL:MBLA:1,2014-02-02T01:30:00Z,30.4367,-88.0117,14.84,1111122 
DISL,ioos:station:DISL:MBLA:1,2014-02-02T02:00:00Z,30.4367,-88.0117,14.43,1111122 
DISL,ioos:station:DISL:MBLA:1,2014-02-02T02:30:00Z,30.4367,-88.0117,14.57,1111122 
DISL,ioos:station:DISL:MBLA:1,2014-02-02T03:00:00Z,30.4367,-88.0117,13.28,1111122 
DISL,ioos:station:DISL:MBLA:1,2014-02-02T03:30:00Z,30.4367,-88.0117,14.1,1111122 
DISL,ioos:station:DISL:MBLA:1,2014-02-02T04:00:00Z,30.4367,-88.0117,13.72,1111122 
DISL,ioos:station:DISL:MBLA:1,2014-02-02T04:30:00Z,30.4367,-88.0117,13.38,1111122 
DISL,ioos:station:DISL:MBLA:1,2014-02-02T05:00:00Z,30.4367,-88.0117,13.89,1111122 
DISL,ioos:station:DISL:MBLA:1,2014-02-02T05:30:00Z,30.4367,-88.0117,13.55,1111122 
DISL,ioos:station:DISL:MBLA:1,2014-02-02T06:00:00Z,30.4367,-88.0117,13.55,1111122 
DISL,ioos:station:DISL:MBLA:1,2014-02-02T06:30:00Z,30.4367,-88.0117,13.32,1111122 
DISL,ioos:station:DISL:MBLA:1,2014-02-02T07:00:00Z,30.4367,-88.0117,14.4,1111122 
DISL,ioos:station:DISL:MBLA:1,2014-02-02T07:30:00Z,30.4367,-88.0117,14.2,1111122 
DISL,ioos:station:DISL:MBLA:1,2014-02-02T08:00:00Z,30.4367,-88.0117,13.93,1111122 
DISL,ioos:station:DISL:MBLA:1,2014-02-02T08:30:00Z,30.4367,-88.0117,13.65,1111122 
DISL,ioos:station:DISL:MBLA:1,2014-02-02T09:00:00Z,30.4367,-88.0117,12.67,1111122 
DISL,ioos:station:DISL:MBLA:1,2014-02-02T09:30:00Z,30.4367,-88.0117,13.79,1111122 
DISL,ioos:station:DISL:MBLA:1,2014-02-02T10:00:00Z,30.4367,-88.0117,14.26,1111122 
DISL,ioos:station:DISL:MBLA:1,2014-02-02T10:30:00Z,30.4367,-88.0117,13.42,1111122 
DISL,ioos:station:DISL:MBLA:1,2014-02-02T11:00:00Z,30.4367,-88.0117,13.35,1111122 
DISL,ioos:station:DISL:MBLA:1,2014-02-02T11:30:00Z,30.4367,-88.0117,13.62,1111122 
DISL,ioos:station:DISL:MBLA:1,2014-02-02T12:00:00Z,30.4367,-88.0117,12.98,1111122 
DISL,ioos:station:DISL:MBLA:1,2014-02-02T12:30:00Z,30.4367,-88.0117,11.76,1111122 
DISL,ioos:station:DISL:MBLA:1,2014-02-02T13:00:00Z,30.4367,-88.0117,12.37,1111122 
DISL,ioos:station:DISL:MBLA:1,2014-02-02T13:30:00Z,30.4367,-88.0117,12.07,1111122 
DISL,ioos:station:DISL:MBLA:1,2014-02-02T14:00:00Z,30.4367,-88.0117,12.2,1111122 
DISL,ioos:station:DISL:MBLA:1,2014-02-02T14:30:00Z,30.4367,-88.0117,12.04,1111122 
DISL,ioos:station:DISL:MBLA:1,2014-02-02T15:00:00Z,30.4367,-88.0117,11.9,1111122 
DISL,ioos:station:DISL:MBLA:1,2014-02-02T15:30:00Z,30.4367,-88.0117,12.54,1111122 
DISL,ioos:station:DISL:MBLA:1,2014-02-02T16:00:00Z,30.4367,-88.0117,13.09,1111122 
DISL,ioos:station:DISL:MBLA:1,2014-02-02T16:30:00Z,30.4367,-88.0117,13.49,1111122 
DISL,ioos:station:DISL:MBLA:1,2014-02-02T17:00:00Z,30.4367,-88.0117,13.69,1111122 
DISL,ioos:station:DISL:MBLA:1,2014-02-02T17:30:00Z,30.4367,-88.0117,13.49,1111122 
DISL,ioos:station:DISL:MBLA:1,2014-02-02T18:00:00Z,30.4367,-88.0117,13.86,1111122 
DISL,ioos:station:DISL:MBLA:1,2014-02-02T18:30:00Z,30.4367,-88.0117,13.59,1111122 
DISL,ioos:station:DISL:MBLA:1,2014-02-02T19:00:00Z,30.4367,-88.0117,13.48,1111122 
DISL,ioos:station:DISL:MBLA:1,2014-02-02T19:30:00Z,30.4367,-88.0117,13.76,1111122 
DISL,ioos:station:DISL:MBLA:1,2014-02-02T20:00:00Z,30.4367,-88.0117,13.59,1111122 
DISL,ioos:station:DISL:MBLA:1,2014-02-02T20:30:00Z,30.4367,-88.0117,13.62,1111122 
DISL,ioos:station:DISL:MBLA:1,2014-02-02T21:00:00Z,30.4367,-88.0117,13.59,1111122 
DISL,ioos:station:DISL:MBLA:1,2014-02-02T21:30:00Z,30.4367,-88.0117,13.35,1111122 
DISL,ioos:station:DISL:MBLA:1,2014-02-02T22:00:00Z,30.4367,-88.0117,13.59,1111122 
DISL,ioos:station:DISL:MBLA:1,2014-02-02T22:30:00Z,30.4367,-88.0117,14.1,1111122 
DISL,ioos:station:DISL:MBLA:1,2014-02-02T23:00:00Z,30.4367,-88.0117,14.26,1111122 
DISL,ioos:station:DISL:MBLA:1,2014-02-02T23:30:00Z,30.4367,-88.0117,14.33,1111122 
DISL,ioos:station:DISL:MBLA:1,2014-02-03T00:00:00Z,30.4367,-88.0117,14.3,1111122 
DISL,ioos:station:DISL:MBLA:1,2014-02-03T00:30:00Z,30.4367,-88.0117,14.16,1111122 
DISL,ioos:station:DISL:MBLA:1,2014-02-03T01:00:00Z,30.4367,-88.0117,13.79,1111122 
DISL,ioos:station:DISL:MBLA:1,2014-02-03T01:30:00Z,30.4367,-88.0117,13.38,1111122 
DISL,ioos:station:DISL:MBLA:1,2014-02-03T02:00:00Z,30.4367,-88.0117,12.94,1111122 
DISL,ioos:station:DISL:MBLA:1,2014-02-03T02:30:00Z,30.4367,-88.0117,12.37,1111122 
DISL,ioos:station:DISL:MBLA:1,2014-02-03T03:00:00Z,30.4367,-88.0117,11.63,1111122 
DISL,ioos:station:DISL:MBLA:1,2014-02-03T03:30:00Z,30.4367,-88.0117,12.48,1111122 
DISL,ioos:station:DISL:MBLA:1,2014-02-03T04:00:00Z,30.4367,-88.0117,12.75,1111122 
DISL,ioos:station:DISL:MBLA:1,2014-02-03T04:30:00Z,30.4367,-88.0117,13.63,1111122 
DISL,ioos:station:DISL:MBLA:1,2014-02-03T05:00:00Z,30.4367,-88.0117,13.46,1111122 
DISL,ioos:station:DISL:MBLA:1,2014-02-03T05:30:00Z,30.4367,-88.0117,13.52,1111122 
DISL,ioos:station:DISL:MBLA:1,2014-02-03T06:00:00Z,30.4367,-88.0117,13.79,1111122 
DISL,ioos:station:DISL:MBLA:1,2014-02-03T06:30:00Z,30.4367,-88.0117,13.08,1111122 
DISL,ioos:station:DISL:MBLA:1,2014-02-03T07:00:00Z,30.4367,-88.0117,13.15,1111122 
DISL,ioos:station:DISL:MBLA:1,2014-02-03T07:30:00Z,30.4367,-88.0117,13.11,1111122 
DISL,ioos:station:DISL:MBLA:1,2014-02-03T08:00:00Z,30.4367,-88.0117,13.05,1111122 
DISL,ioos:station:DISL:MBLA:1,2014-02-03T08:30:00Z,30.4367,-88.0117,13.12,1111122 
DISL,ioos:station:DISL:MBLA:1,2014-02-03T09:00:00Z,30.4367,-88.0117,13.01,1111122 
DISL,ioos:station:DISL:MBLA:1,2014-02-03T09:30:00Z,30.4367,-88.0117,14.07,1111122 
DISL,ioos:station:DISL:MBLA:1,2014-02-03T10:00:00Z,30.4367,-88.0117,14.67,1111122 
DISL,ioos:station:DISL:MBLA:1,2014-02-03T10:30:00Z,30.4367,-88.0117,15.49,1111122 
DISL,ioos:station:DISL:MBLA:1,2014-02-03T11:00:00Z,30.4367,-88.0117,14.2,1111122 
DISL,ioos:station:DISL:MBLA:1,2014-02-03T11:30:00Z,30.4367,-88.0117,13.35,1111122 
DISL,ioos:station:DISL:MBLA:1,2014-02-03T12:00:00Z,30.4367,-88.0117,12.23,1111122 
DISL,ioos:station:DISL:MBLA:1,2014-02-03T12:30:00Z,30.4367,-88.0117,12.0,1111122 
DISL,ioos:station:DISL:MBLA:1,2014-02-03T13:00:00Z,30.4367,-88.0117,11.25,1111122 
DISL,ioos:station:DISL:MBLA:1,2014-02-03T13:30:00Z,30.4367,-88.0117,10.48,1111122 
DISL,ioos:station:DISL:MBLA:1,2014-02-03T14:00:00Z,30.4367,-88.0117,9.33,1111122 
DISL,ioos:station:DISL:MBLA:1,2014-02-03T14:30:00Z,30.4367,-88.0117,8.45,1111122 
DISL,ioos:station:DISL:MBLA:1,2014-02-03T15:00:00Z,30.4367,-88.0117,8.18,1111122 
DISL,ioos:station:DISL:MBLA:1,2014-02-03T15:30:00Z,30.4367,-88.0117,7.913,1111122 
DISL,ioos:station:DISL:MBLA:1,2014-02-03T16:00:00Z,30.4367,-88.0117,8.08,1111122 
DISL,ioos:station:DISL:MBLA:1,2014-02-03T16:30:00Z,30.4367,-88.0117,8.25,1111122 
DISL,ioos:station:DISL:MBLA:1,2014-02-03T17:00:00Z,30.4367,-88.0117,8.25,1111122 
DISL,ioos:station:DISL:MBLA:1,2014-02-03T17:30:00Z,30.4367,-88.0117,8.22,1111122 
DISL,ioos:station:DISL:MBLA:1,2014-02-03T18:00:00Z,30.4367,-88.0117,8.39,1111122 
DISL,ioos:station:DISL:MBLA:1,2014-02-03T18:30:00Z,30.4367,-88.0117,8.32,1111122 
DISL,ioos:station:DISL:MBLA:1,2014-02-03T19:00:00Z,30.4367,-88.0117,8.56,1111122 
DISL,ioos:station:DISL:MBLA:1,2014-02-03T19:30:00Z,30.4367,-88.0117,8.59,1111122 
DISL,ioos:station:DISL:MBLA:1,2014-02-03T20:00:00Z,30.4367,-88.0117,8.76,1111122 
DISL,ioos:station:DISL:MBLA:1,2014-02-03T20:30:00Z,30.4367,-88.0117,8.59,1111122 
DISL,ioos:station:DISL:MBLA:1,2014-02-03T21:00:00Z,30.4367,-88.0117,8.69,1111122 
DISL,ioos:station:DISL:MBLA:1,2014-02-03T21:30:00Z,30.4367,-88.0117,8.73,1111122 
DISL,ioos:station:DISL:MBLA:1,2014-02-03T22:00:00Z,30.4367,-88.0117,8.66,1111122 
DISL,ioos:station:DISL:MBLA:1,2014-02-03T22:30:00Z,30.4367,-88.0117,8.66,1111122 
DISL,ioos:station:DISL:MBLA:1,2014-02-03T23:00:00Z,30.4367,-88.0117,8.86,1111122 
DISL,ioos:station:DISL:MBLA:1,2014-02-03T23:30:00Z,30.4367,-88.0117,8.83,1111122 
DISL,ioos:station:DISL:MBLA:1,2014-02-04T00:00:00Z,30.4367,-88.0117,8.66,1111122 
DISL,ioos:station:DISL:MBLA:1,2014-02-04T00:30:00Z,30.4367,-88.0117,8.32,1111122 
DISL,ioos:station:DISL:MBLA:1,2014-02-04T01:00:00Z,30.4367,-88.0117,8.19,1111122 
DISL,ioos:station:DISL:MBLA:1,2014-02-04T01:30:00Z,30.4367,-88.0117,7.986,1111122 
DISL,ioos:station:DISL:MBLA:1,2014-02-04T02:00:00Z,30.4367,-88.0117,7.785,1111122 
DISL,ioos:station:DISL:MBLA:1,2014-02-04T02:30:00Z,30.4367,-88.0117,7.582,1111122 
DISL,ioos:station:DISL:MBLA:1,2014-02-04T03:00:00Z,30.4367,-88.0117,7.48,1111122 
DISL,ioos:station:DISL:MBLA:1,2014-02-04T03:30:00Z,30.4367,-88.0117,7.616,1111122 
DISL,ioos:station:DISL:MBLA:1,2014-02-04T04:00:00Z,30.4367,-88.0117,7.65,1111122 
DISL,ioos:station:DISL:MBLA:1,2014-02-04T04:30:00Z,30.4367,-88.0117,7.516,1111122 
DISL,ioos:station:DISL:MBLA:1,2014-02-04T05:00:00Z,30.4367,-88.0117,7.481,1111122 
DISL,ioos:station:DISL:MBLA:1,2014-02-04T05:30:00Z,30.4367,-88.0117,7.515,1111122 
DISL,ioos:station:DISL:MBLA:1,2014-02-04T06:00:00Z,30.4367,-88.0117,7.548,1111122 
DISL,ioos:station:DISL:MBLA:1,2014-02-04T06:30:00Z,30.4367,-88.0117,7.48,1111122 
DISL,ioos:station:DISL:MBLA:1,2014-02-04T07:00:00Z,30.4367,-88.0117,7.548,1111122 
DISL,ioos:station:DISL:MBLA:1,2014-02-04T07:30:00Z,30.4367,-88.0117,7.379,1111122 
DISL,ioos:station:DISL:MBLA:1,2014-02-04T08:00:00Z,30.4367,-88.0117,7.413,1111122 
DISL,ioos:station:DISL:MBLA:1,2014-02-04T08:30:00Z,30.4367,-88.0117,7.583,1111122 
DISL,ioos:station:DISL:MBLA:1,2014-02-04T09:00:00Z,30.4367,-88.0117,7.549,1111122 
DISL,ioos:station:DISL:MBLA:1,2014-02-04T09:30:00Z,30.4367,-88.0117,7.616,1111122 
DISL,ioos:station:DISL:MBLA:1,2014-02-04T10:00:00Z,30.4367,-88.0117,7.684,1111122 
DISL,ioos:station:DISL:MBLA:1,2014-02-04T10:30:00Z,30.4367,-88.0117,7.786,1111122 
DISL,ioos:station:DISL:MBLA:1,2014-02-04T11:00:00Z,30.4367,-88.0117,7.955,1111122 
DISL,ioos:station:DISL:MBLA:1,2014-02-04T11:30:00Z,30.4367,-88.0117,8.16,1111122 
DISL,ioos:station:DISL:MBLA:1,2014-02-04T12:00:00Z,30.4367,-88.0117,8.33,1111122 
DISL,ioos:station:DISL:MBLA:1,2014-02-04T12:30:00Z,30.4367,-88.0117,8.46,1111122 
DISL,ioos:station:DISL:MBLA:1,2014-02-04T13:00:00Z,30.4367,-88.0117,8.67,1111122 
DISL,ioos:station:DISL:MBLA:1,2014-02-04T13:30:00Z,30.4367,-88.0117,8.94,1111122 
DISL,ioos:station:DISL:MBLA:1,2014-02-04T14:00:00Z,30.4367,-88.0117,9.11,1111122 
DISL,ioos:station:DISL:MBLA:1,2014-02-04T14:30:00Z,30.4367,-88.0117,9.31,1111122 
DISL,ioos:station:DISL:MBLA:1,2014-02-04T15:00:00Z,30.4367,-88.0117,9.54,1111122 
DISL,ioos:station:DISL:MBLA:1,2014-02-04T15:30:00Z,30.4367,-88.0117,10.08,1111122 
DISL,ioos:station:DISL:MBLA:1,2014-02-04T16:00:00Z,30.4367,-88.0117,10.59,1111122 
DISL,ioos:station:DISL:MBLA:1,2014-02-04T16:30:00Z,30.4367,-88.0117,10.55,1111122 
DISL,ioos:station:DISL:MBLA:1,2014-02-04T17:00:00Z,30.4367,-88.0117,10.52,1111122 
DISL,ioos:station:DISL:MBLA:1,2014-02-04T17:30:00Z,30.4367,-88.0117,10.62,1111122 
DISL,ioos:station:DISL:MBLA:1,2014-02-04T18:00:00Z,30.4367,-88.0117,10.79,1111122 
DISL,ioos:station:DISL:MBLA:1,2014-02-04T18:30:00Z,30.4367,-88.0117,11.13,1111122 
DISL,ioos:station:DISL:MBLA:1,2014-02-04T19:00:00Z,30.4367,-88.0117,11.33,1111122 
DISL,ioos:station:DISL:MBLA:1,2014-02-04T19:30:00Z,30.4367,-88.0117,11.46,1111122 
DISL,ioos:station:DISL:MBLA:1,2014-02-04T20:00:00Z,30.4367,-88.0117,12.27,1111122 
DISL,ioos:station:DISL:MBLA:1,2014-02-04T20:30:00Z,30.4367,-88.0117,13.7,1111122 
DISL,ioos:station:DISL:MBLA:1,2014-02-04T21:00:00Z,30.4367,-88.0117,14.23,1111122 
DISL,ioos:station:DISL:MBLA:1,2014-02-04T21:30:00Z,30.4367,-88.0117,13.93,1111122 
DISL,ioos:station:DISL:MBLA:1,2014-02-04T22:00:00Z,30.4367,-88.0117,14.26,1111122 
DISL,ioos:station:DISL:MBLA:1,2014-02-04T22:30:00Z,30.4367,-88.0117,14.88,1111122 
DISL,ioos:station:DISL:MBLA:1,2014-02-04T23:00:00Z,30.4367,-88.0117,14.1,1111122 
DISL,ioos:station:DISL:MBLA:1,2014-02-04T23:30:00Z,30.4367,-88.0117,14.3,1111122 
DISL,ioos:station:DISL:MBLA:1,2014-02-05T00:00:00Z,30.4367,-88.0117,13.93,1111122 
DISL,ioos:station:DISL:MBLA:1,2014-02-05T00:30:00Z,30.4367,-88.0117,14.26,1111122 
DISL,ioos:station:DISL:MBLA:1,2014-02-05T01:00:00Z,30.4367,-88.0117,14.4,1111122 
DISL,ioos:station:DISL:MBLA:1,2014-02-05T01:30:00Z,30.4367,-88.0117,14.03,1111122 
DISL,ioos:station:DISL:MBLA:1,2014-02-05T02:00:00Z,30.4367,-88.0117,13.93,1111122 
DISL,ioos:station:DISL:MBLA:1,2014-02-05T02:30:00Z,30.4367,-88.0117,14.43,1111122 
DISL,ioos:station:DISL:MBLA:1,2014-02-05T03:00:00Z,30.4367,-88.0117,14.74,1111122 
DISL,ioos:station:DISL:MBLA:1,2014-02-05T03:30:00Z,30.4367,-88.0117,14.67,1111122 
DISL,ioos:station:DISL:MBLA:1,2014-02-05T04:00:00Z,30.4367,-88.0117,15.18,1111122 
DISL,ioos:station:DISL:MBLA:1,2014-02-05T04:30:00Z,30.4367,-88.0117,15.15,1111122 
DISL,ioos:station:DISL:MBLA:1,2014-02-05T05:00:00Z,30.4367,-88.0117,15.28,1111122 
DISL,ioos:station:DISL:MBLA:1,2014-02-05T05:30:00Z,30.4367,-88.0117,14.97,1111122 
DISL,ioos:station:DISL:MBLA:1,2014-02-05T06:00:00Z,30.4367,-88.0117,14.7,1111122 
DISL,ioos:station:DISL:MBLA:1,2014-02-05T06:30:00Z,30.4367,-88.0117,15.45,1111122 
DISL,ioos:station:DISL:MBLA:1,2014-02-05T07:00:00Z,30.4367,-88.0117,14.9,1111122 
DISL,ioos:station:DISL:MBLA:1,2014-02-05T07:30:00Z,30.4367,-88.0117,15.21,1111122 
DISL,ioos:station:DISL:MBLA:1,2014-02-05T08:00:00Z,30.4367,-88.0117,14.56,1111122 
DISL,ioos:station:DISL:MBLA:1,2014-02-05T08:30:00Z,30.4367,-88.0117,14.91,1111122 
DISL,ioos:station:DISL:MBLA:1,2014-02-05T09:00:00Z,30.4367,-88.0117,15.11,1111122 
DISL,ioos:station:DISL:MBLA:1,2014-02-05T09:30:00Z,30.4367,-88.0117,15.41,1111122 
DISL,ioos:station:DISL:MBLA:1,2014-02-05T10:00:00Z,30.4367,-88.0117,15.24,1111122 
DISL,ioos:station:DISL:MBLA:1,2014-02-05T10:30:00Z,30.4367,-88.0117,13.79,1111122 
DISL,ioos:station:DISL:MBLA:1,2014-02-05T11:00:00Z,30.4367,-88.0117,12.87,1111122 
DISL,ioos:station:DISL:MBLA:1,2014-02-05T11:30:00Z,30.4367,-88.0117,11.86,1111122 
DISL,ioos:station:DISL:MBLA:1,2014-02-05T12:00:00Z,30.4367,-88.0117,11.49,1111122 
DISL,ioos:station:DISL:MBLA:1,2014-02-05T12:30:00Z,30.4367,-88.0117,11.22,1111122 
DISL,ioos:station:DISL:MBLA:1,2014-02-05T13:00:00Z,30.4367,-88.0117,10.78,1111122 
DISL,ioos:station:DISL:MBLA:1,2014-02-05T13:30:00Z,30.4367,-88.0117,10.24,1111122 
DISL,ioos:station:DISL:MBLA:1,2014-02-05T14:00:00Z,30.4367,-88.0117,9.46,1111122 
DISL,ioos:station:DISL:MBLA:1,2014-02-05T14:30:00Z,30.4367,-88.0117,9.33,1111122 
DISL,ioos:station:DISL:MBLA:1,2014-02-05T15:00:00Z,30.4367,-88.0117,8.99,1111122 
DISL,ioos:station:DISL:MBLA:1,2014-02-05T15:30:00Z,30.4367,-88.0117,9.77,1111122 
DISL,ioos:station:DISL:MBLA:1,2014-02-05T16:00:00Z,30.4367,-88.0117,9.94,1111122 
DISL,ioos:station:DISL:MBLA:1,2014-02-05T16:30:00Z,30.4367,-88.0117,9.73,1111122 
DISL,ioos:station:DISL:MBLA:1,2014-02-05T17:00:00Z,30.4367,-88.0117,10.0,1111122 
DISL,ioos:station:DISL:MBLA:1,2014-02-05T17:30:00Z,30.4367,-88.0117,10.07,1111122 
DISL,ioos:station:DISL:MBLA:1,2014-02-05T18:00:00Z,30.4367,-88.0117,10.34,1111122 
DISL,ioos:station:DISL:MBLA:1,2014-02-05T18:30:00Z,30.4367,-88.0117,10.74,1111122 
DISL,ioos:station:DISL:MBLA:1,2014-02-05T19:00:00Z,30.4367,-88.0117,11.18,1111122 
DISL,ioos:station:DISL:MBLA:1,2014-02-05T19:30:00Z,30.4367,-88.0117,11.31,1111122 
DISL,ioos:station:DISL:MBLA:1,2014-02-05T20:00:00Z,30.4367,-88.0117,10.87,1111122 
DISL,ioos:station:DISL:MBLA:1,2014-02-05T20:30:00Z,30.4367,-88.0117,11.11,1111122 
DISL,ioos:station:DISL:MBLA:1,2014-02-05T21:00:00Z,30.4367,-88.0117,11.38,1111122 
DISL,ioos:station:DISL:MBLA:1,2014-02-05T21:30:00Z,30.4367,-88.0117,11.86,1111122 
DISL,ioos:station:DISL:MBLA:1,2014-02-05T22:00:00Z,30.4367,-88.0117,12.06,1111122 
DISL,ioos:station:DISL:MBLA:1,2014-02-05T22:30:00Z,30.4367,-88.0117,11.55,1111122 
DISL,ioos:station:DISL:MBLA:1,2014-02-05T23:00:00Z,30.4367,-88.0117,10.87,1111122 
DISL,ioos:station:DISL:MBLA:1,2014-02-05T23:30:00Z,30.4367,-88.0117,9.96,1111122 
DISL,ioos:station:DISL:MBLA:1,2014-02-06T00:00:00Z,30.4367,-88.0117,8.91,1111122 
DISL,ioos:station:DISL:MBLA:1,2014-02-06T00:30:00Z,30.4367,-88.0117,8.08,1111122 
DISL,ioos:station:DISL:MBLA:1,2014-02-06T01:00:00Z,30.4367,-88.0117,7.336,1111122 
DISL,ioos:station:DISL:MBLA:1,2014-02-06T01:30:00Z,30.4367,-88.0117,6.832,1111122 
DISL,ioos:station:DISL:MBLA:1,2014-02-06T02:00:00Z,30.4367,-88.0117,6.835,1111122 
DISL,ioos:station:DISL:MBLA:1,2014-02-06T02:30:00Z,30.4367,-88.0117,6.598,1111122 
DISL,ioos:station:DISL:MBLA:1,2014-02-06T03:00:00Z,30.4367,-88.0117,6.428,1111122 
DISL,ioos:station:DISL:MBLA:1,2014-02-06T03:30:00Z,30.4367,-88.0117,6.297,1111122 
DISL,ioos:station:DISL:MBLA:1,2014-02-06T04:00:00Z,30.4367,-88.0117,6.096,1111122 
DISL,ioos:station:DISL:MBLA:1,2014-02-06T04:30:00Z,30.4367,-88.0117,6.096,1111122 
DISL,ioos:station:DISL:MBLA:1,2014-02-06T05:00:00Z,30.4367,-88.0117,5.621,1111122 
DISL,ioos:station:DISL:MBLA:1,2014-02-06T05:30:00Z,30.4367,-88.0117,5.519,1111122 
DISL,ioos:station:DISL:MBLA:1,2014-02-06T06:00:00Z,30.4367,-88.0117,5.181,1111122 
DISL,ioos:station:DISL:MBLA:1,2014-02-06T06:30:00Z,30.4367,-88.0117,4.946,1111122 
DISL,ioos:station:DISL:MBLA:1,2014-02-06T07:00:00Z,30.4367,-88.0117,4.881,1111122 
DISL,ioos:station:DISL:MBLA:1,2014-02-06T07:30:00Z,30.4367,-88.0117,4.478,1111122 
DISL,ioos:station:DISL:MBLA:1,2014-02-06T08:00:00Z,30.4367,-88.0117,3.803,1111122 
DISL,ioos:station:DISL:MBLA:1,2014-02-06T08:30:00Z,30.4367,-88.0117,3.667,1111122 
DISL,ioos:station:DISL:MBLA:1,2014-02-06T09:00:00Z,30.4367,-88.0117,3.565,1111122 
DISL,ioos:station:DISL:MBLA:1,2014-02-06T09:30:00Z,30.4367,-88.0117,3.362,1111122 
DISL,ioos:station:DISL:MBLA:1,2014-02-06T10:00:00Z,30.4367,-88.0117,3.192,1111122 
DISL,ioos:station:DISL:MBLA:1,2014-02-06T10:30:00Z,30.4367,-88.0117,3.226,1111122 
DISL,ioos:station:DISL:MBLA:1,2014-02-06T11:00:00Z,30.4367,-88.0117,3.26,1111122 
DISL,ioos:station:DISL:MBLA:1,2014-02-06T11:30:00Z,30.4367,-88.0117,2.954,1111122 
DISL,ioos:station:DISL:MBLA:1,2014-02-06T12:00:00Z,30.4367,-88.0117,2.547,1111122 
DISL,ioos:station:DISL:MBLA:1,2014-02-06T12:30:00Z,30.4367,-88.0117,2.377,1111122 
DISL,ioos:station:DISL:MBLA:1,2014-02-06T13:00:00Z,30.4367,-88.0117,2.275,1111122 
DISL,ioos:station:DISL:MBLA:1,2014-02-06T13:30:00Z,30.4367,-88.0117,2.378,1111122 
DISL,ioos:station:DISL:MBLA:1,2014-02-06T14:00:00Z,30.4367,-88.0117,2.48,1111122 
DISL,ioos:station:DISL:MBLA:1,2014-02-06T14:30:00Z,30.4367,-88.0117,2.275,1111122 
DISL,ioos:station:DISL:MBLA:1,2014-02-06T15:00:00Z,30.4367,-88.0117,2.615,1111122 
DISL,ioos:station:DISL:MBLA:1,2014-02-06T15:30:00Z,30.4367,-88.0117,2.547,1111122 
DISL,ioos:station:DISL:MBLA:1,2014-02-06T16:00:00Z,30.4367,-88.0117,2.581,1111122 
DISL,ioos:station:DISL:MBLA:1,2014-02-06T16:30:00Z,30.4367,-88.0117,2.615,1111122 
DISL,ioos:station:DISL:MBLA:1,2014-02-06T17:00:00Z,30.4367,-88.0117,2.411,1111122 
DISL,ioos:station:DISL:MBLA:1,2014-02-06T17:30:00Z,30.4367,-88.0117,2.683,1111122 
DISL,ioos:station:DISL:MBLA:1,2014-02-06T18:00:00Z,30.4367,-88.0117,2.886,1111122 
DISL,ioos:station:DISL:MBLA:1,2014-02-06T18:30:00Z,30.4367,-88.0117,2.683,1111122 
DISL,ioos:station:DISL:MBLA:1,2014-02-06T19:00:00Z,30.4367,-88.0117,3.192,1111122 
DISL,ioos:station:DISL:MBLA:1,2014-02-06T19:30:00Z,30.4367,-88.0117,2.988,1111122 
DISL,ioos:station:DISL:MBLA:1,2014-02-06T20:00:00Z,30.4367,-88.0117,3.192,1111122 
DISL,ioos:station:DISL:MBLA:1,2014-02-06T20:30:00Z,30.4367,-88.0117,3.497,1111122 
DISL,ioos:station:DISL:MBLA:1,2014-02-06T21:00:00Z,30.4367,-88.0117,3.667,1111122 
DISL,ioos:station:DISL:MBLA:1,2014-02-06T21:30:00Z,30.4367,-88.0117,3.735,1111122 
DISL,ioos:station:DISL:MBLA:1,2014-02-06T22:00:00Z,30.4367,-88.0117,3.09,1111122 
DISL,ioos:station:DISL:MBLA:1,2014-02-06T22:30:00Z,30.4367,-88.0117,3.328,1111122 
DISL,ioos:station:DISL:MBLA:1,2014-02-06T23:00:00Z,30.4367,-88.0117,2.92,1111122 
DISL,ioos:station:DISL:MBLA:1,2014-02-06T23:30:00Z,30.4367,-88.0117,2.954,1111122 
DISL,ioos:station:DISL:MBLA:1,2014-02-07T00:00:00Z,30.4367,-88.0117,2.92,1111122 